Getzville 2E NY

43° 01' 25"N, 78° 44' 55"W, Elevation 589 ft.
Eastern Time

Hourly observations for the last 72 hours

Date Time Temperature (°F) Humi-
dity

(%)
Wind
(mph)
Pressure Rain (in) Sun
(W/m2)
ET
(in)
Air Dew 6 Hour 1 Hr 3 Hr 6 Hr Day
Alt
(in)
Sea
Level

(mb)
Max Min
17 10:00 67.9 58.2 71 E 5 G 9 29.99 1015.6 0.00 726 0.018
17 09:00 63.3 57.7 82 E 5 G 8 29.99 1015.6 0.00 617 0.007
17 08:00 59.4 57.1 59.4 48.7 92 E 2 G 8 30.00 1015.9 0.00 237 0.001
17 07:00 51.9 50.5 95 WNW 0 G 1 29.99 1015.7 0.00 51 0.000
17 06:00 51.0 49.6 95 Calm 29.97 1014.8 0.00 14 0.000
17 05:00 49.4 48.0 95 Calm 29.96 1014.7 0.00 0 0.000
17 04:00 49.2 47.5 94 Calm 29.96 1014.5 0.00 0 0.000
17 03:00 48.7 47.1 94 Calm 29.95 1014.2 0.00 0 0.000
17 02:00 49.8 48.1 62.1 49.8 94 Calm 29.94 1013.8 0.00 0 0.000
17 01:00 50.6 48.7 93 Calm 29.94 1014.1 0.00 0 0.000
17 00:00 52.2 50.2 93 Calm 29.93 1013.7 0.18 0 0.057
16 23:00 53.6 51.3 92 Calm 29.92 1013.4 0.17 0 0.057
16 22:00 55.5 52.9 91 Calm 29.90 1012.7 0.17 0 0.057
16 21:00 59.0 54.5 85 E 0 G 1 29.90 1012.5 0.17 0 0.057
16 20:00 62.1 54.8 63.3 60.2 77 E 2 G 6 29.89 1012.1 0.17 35 0.054
16 19:00 62.6 55.7 78 E 3 G 4 29.89 1012.1 0.17 248 0.048
16 18:00 62.4 56.2 80 E 2 G 4 29.87 1011.7 0.17 221 0.043
16 17:00 62.4 55.5 78 E 3 G 7 29.87 1011.6 0.17 287 0.037
16 16:00 62.4 56.8 82 E 2 G 6 29.87 1011.4 0.17 229 0.029
16 15:00 60.8 55.9 84 E 3 G 9 29.86 1011.4 0.17 445 0.022
16 14:00 60.4 56.8 60.4 53.0 88 E 4 G 9 29.86 1011.2 0.01 0.11 0.17 267 0.015
16 13:00 57.3 55.3 93 E 1 G 6 29.86 1011.1 0.17 360 0.009
16 12:00 54.1 52.1 93 E 1 G 9 29.85 1010.7 0.01 0.17 211 0.006
16 11:00 54.6 53.2 95 ENE 4 G 10 29.84 1010.5 0.07 0.10 0.16 137 0.004
16 10:00 54.5 52.8 94 E 3 G 10 29.82 1010.0 0.03 0.09 123 0.002
16 09:00 54.8 53.4 95 E 4 G 9 29.82 1009.9 0.06 93 0.001
16 08:00 55.9 54.5 60.9 55.9 95 ENE 3 G 9 29.81 1009.4 0.01 0.06 35 0.000
16 07:00 56.3 54.9 95 E 2 G 5 29.81 1009.5 0.06 19 0.000
16 06:00 56.5 55.1 95 E 2 G 7 29.81 1009.5 0.06 5 0.000
16 05:00 56.6 55.2 95 E 4 G 7 29.81 1009.6 0.01 0.06 0 0.000
16 04:00 57.3 55.9 95 ENE 2 G 6 29.82 1009.9 0.06 0 0.000
16 03:00 58.4 57.0 95 E 2 G 7 29.83 1010.4 0.01 0.06 0 0.000
16 02:00 60.8 59.4 62.0 60.8 95 E 2 G 4 29.84 1010.7 0.02 0.16 0.44 0.05 0 0.000
16 01:00 61.9 60.5 95 W 0 G 1 29.85 1010.7 0.04 0.03 0 0.000
16 00:00 61.7 60.3 95 WNW 0 G 1 29.85 1010.7 0.10 0.71 0 0.088
15 23:00 61.4 60.0 95 W 1 G 4 29.85 1011.0 0.15 0.28 0.61 0 0.088
15 22:00 61.4 60.0 95 W 1 G 7 29.85 1010.8 0.07 0.46 0 0.088
15 21:00 61.6 60.2 95 W 2 G 7 29.84 1010.4 0.06 0.39 0 0.088
15 20:00 61.6 59.9 68.9 60.2 94 W 2 G 10 29.84 1010.5 0.26 0.32 0.33 0.33 9 0.088
15 19:00 61.6 59.6 93 WSW 3 G 8 29.84 1010.5 0.06 0.07 9 0.088
15 18:00 61.0 58.7 92 WSW 2 G 7 29.84 1010.6 0.01 19 0.087
15 17:00 60.3 58.0 92 WSW 4 G 12 29.85 1010.9 0.01 0.01 0.01 37 0.086
15 16:00 61.5 58.5 90 WSW 4 G 18 29.85 1010.8 0.00 67 0.083
15 15:00 64.4 57.8 79 WSW 4 G 16 29.84 1010.6 0.00 236 0.078
15 14:00 68.9 57.1 71.1 64.7 66 WSW 5 G 17 29.83 1010.3 0.00 251 0.067
15 13:00 70.5 56.4 61 WSW 7 G 16 29.85 1010.7 0.00 598 0.053
15 12:00 67.7 56.8 68 SW 3 G 10 29.86 1011.1 0.00 383 0.043
15 11:00 66.5 56.4 70 SW 4 G 11 29.88 1011.7 0.00 348 0.036
15 10:00 67.7 55.5 65 WSW 3 G 20 29.88 1012.0 0.00 555 0.026
15 09:00 66.9 54.3 64 WSW 6 G 16 29.90 1012.5 0.00 338 0.016
15 08:00 64.7 53.1 64.7 62.5 66 WSW 4 G 11 29.91 1012.9 0.00 504 0.011
15 07:00 62.9 51.4 66 SW 2 G 4 29.91 1012.8 0.00 84 0.009
15 06:00 62.8 51.3 66 SW 2 G 7 29.90 1012.5 0.00 0 0.008
15 05:00 63.5 51.5 65 SW 2 G 4 29.90 1012.5 0.00 0 0.006
15 04:00 63.8 51.4 64 SW 3 G 7 29.91 1012.8 0.00 0 0.004
15 03:00 63.9 51.5 64 WSW 3 G 8 29.92 1013.1 0.00 0 0.002
15 02:00 63.0 51.5 63.0 59.7 66 SW 2 G 7 29.92 1013.3 0.00 0 0.001
15 01:00 60.5 49.5 67 SSW 1 G 2 29.93 1013.6 0.00 0 0.000
15 00:00 60.4 50.6 70 SW 1 G 3 29.95 1014.3 0.24 0 0.197
14 23:00 59.8 52.2 76 SW 0 G 2 29.96 1014.6 0.23 0 0.196
14 22:00 60.3 51.6 73 SW 0 G 2 29.97 1014.9 0.23 0 0.195
14 21:00 61.4 51.9 71 WSW 1 G 6 29.96 1014.5 0.23 0 0.194
14 20:00 62.7 51.6 68.2 62.7 67 SW 2 G 8 29.96 1014.7 0.23 44 0.192
14 19:00 65.6 53.5 65 W 3 G 10 29.97 1014.9 0.23 348 0.184
14 18:00 65.1 53.1 65 W 8 G 13 29.97 1014.8 0.23 302 0.175
14 17:00 66.7 53.7 63 WSW 6 G 21 29.96 1014.7 0.23 429 0.165
14 16:00 67.8 54.8 63 W 7 G 18 29.96 1014.6 0.23 947 0.145
14 15:00 67.1 55.0 65 W 9 G 23 29.95 1014.2 0.23 251 0.122
14 14:00 68.0 55.8 69.7 53.5 65 SW 4 G 18 29.93 1013.5 0.23 283 0.102
14 13:00 69.6 56.5 63 W 6 G 20 29.92 1013.1 0.23 1273 0.074
14 12:00 68.1 53.7 60 WNW 6 G 15 29.90 1012.7 0.23 1148 0.047
14 11:00 64.5 52.5 65 W 5 G 17 29.89 1012.2 0.23 1051 0.024

Data generated by WxSolution Version 1.9.1.5, Build 2018.05.20.